EW0237 Weather Reports


time (UTC)temp
C
wind
direction
speed
KPH
gust
KPH
rain 1hr
cm
rain 24hr
cm
rain mn
cm
humidity
%
barometer
mb
20260504201940 25 90 11.3 11.3 0.00 0.00 0.00 32 1008.5
20260504200940 25 247 0.0 4.8 0.00 0.00 0.00 32 1008.8
20260504195939 25 112 4.8 4.8 0.00 0.00 0.00 32 1008.8
20260504194938 25 270 4.8 4.8 0.00 0.00 0.00 33 1009.1
20260504193937 25 180 0.0 6.4 0.00 0.00 0.00 33 1008.8
20260504192905 25 157 0.0 4.8 0.00 0.00 0.00 33 1009.1
20260504191904 25 112 3.2 4.8 0.00 0.00 0.00 33 1009.5
20260504190903 25 135 3.2 8.0 0.00 0.00 0.00 34 1009.5
20260504185902 25 67 6.4 14.5 0.00 0.00 0.00 34 1009.8
20260504184901 24 225 8.0 8.0 0.00 0.00 0.00 34 1009.8
20260504183900 23 337 0.0 6.4 0.00 0.00 0.00 36 1010.2
20260504182858 24 67 8.0 8.0 0.00 0.00 0.00 35 1010.2
20260504181857 24 180 3.2 4.8 0.00 0.00 0.00 36 1010.5
20260504180856 23 157 4.8 6.4 0.00 0.00 0.00 35 1010.5
20260504175855 23 315 8.0 8.0 0.00 0.00 0.00 35 1010.8
20260504174854 23 135 9.7 9.7 0.00 0.00 0.00 38 1010.8
20260504173854 23 135 6.4 8.0 0.00 0.00 0.00 37 1010.8
20260504172853 23 225 4.8 8.0 0.00 0.00 0.00 37 1011.2
20260504171852 22 180 9.7 9.7 0.00 0.00 0.00 37 1011.2
20260504170851 22 90 6.4 6.4 0.00 0.00 0.00 38 1011.5
20260504150737 18 225 3.2 4.8 0.00 0.00 0.00 45 1012.5
20260504140629 16 157 3.2 3.2 0.00 0.00 0.00 51 1012.9
20260504130625 12 135 4.8 4.8 0.00 0.00 0.00 60 1013.5
20260504110443 8 112 0.0 0.0 0.00 0.00 0.00 76 1013.9
20260504100407 9 112 0.0 0.0 0.00 0.00 0.00 72 1013.9
20260504081326 8 135 0.0 0.0 0.00 0.00 0.00 76 1014.2
20260504080325 8 292 0.0 0.0 0.00 0.00 0.00 76 1013.9
20260504070219 8 315 0.0 0.0 0.00 0.00 0.00 75 1014.2
20260504060213 7 315 0.0 0.0 0.00 0.00 0.00 75 1014.6
20260504050208 7 315 0.0 0.0 0.00 0.00 0.00 73 1014.2
20260504045136 7 315 0.0 0.0 0.00 0.00 0.00 73 1014.2
20260504044134 7 315 0.0 0.0 0.00 0.00 0.00 73 1014.6
20260504043134 7 315 0.0 0.0 0.00 0.00 0.00 73 1014.2
20260504042133 7 315 0.0 0.0 0.00 0.00 0.00 73 1014.2
20260504041132 7 315 0.0 0.0 0.00 0.00 0.00 72 1014.2
20260504040131 7 315 0.0 0.0 0.00 0.00 0.00 71 1014.2
20260504035130 7 315 0.0 0.0 0.00 0.00 0.00 70 1014.2
20260504034129 7 315 0.0 0.0 0.00 0.00 0.00 70 1014.2
20260504033129 7 315 0.0 0.0 0.00 0.00 0.00 69 1014.2
20260504032128 7 315 0.0 0.0 0.00 0.00 0.00 68 1014.2
20260504031127 7 315 0.0 0.0 0.00 0.00 0.00 67 1014.2
20260504030126 7 315 0.0 0.0 0.00 0.00 0.00 66 1014.2
20260504025055 8 315 0.0 0.0 0.00 0.00 0.00 65 1013.9
20260504024054 8 315 0.0 0.0 0.00 0.00 0.00 64 1014.2
20260504023054 8 315 0.0 0.0 0.00 0.00 0.00 62 1013.9
20260504022053 8 315 0.0 0.0 0.00 0.00 0.00 61 1013.9
20260504021020 8 315 0.0 0.0 0.00 0.00 0.00 59 1013.9
20260504020020 9 315 0.0 0.0 0.00 0.00 0.00 58 1013.5
20260504015018 10 315 0.0 0.0 0.00 0.00 0.00 57 1013.5
20260504014017 10 315 0.0 0.0 0.00 0.00 0.00 55 1013.5
20260504013017 10 315 0.0 0.0 0.00 0.00 0.00 55 1013.5
20260504012016 10 315 0.0 0.0 0.00 0.00 0.00 54 1013.2
20260504011014 11 315 0.0 0.0 0.00 0.00 0.00 54 1013.5
20260504005943 11 315 0.0 0.0 0.00 0.00 0.00 51 1013.5
20260504004941 11 315 0.0 0.0 0.00 0.00 0.00 50 1013.2
20260504003940 12 315 0.0 0.0 0.00 0.00 0.00 51 1013.2
20260504002938 12 315 0.0 0.0 0.00 0.00 0.00 50 1013.2
20260504001938 13 315 0.0 0.0 0.00 0.00 0.00 46 1013.2
20260504000937 13 315 0.0 0.0 0.00 0.00 0.00 44 1013.2
20260503235936 14 315 0.0 0.0 0.00 0.00 0.00 40 1012.9
20260503234935 15 315 0.0 0.0 0.00 0.00 0.00 38 1012.9
20260503233935 15 315 0.0 0.0 0.00 0.00 0.00 35 1012.9
20260503232934 16 315 0.0 8.0 0.00 0.00 0.00 33 1012.5
20260503231933 16 247 0.0 0.0 0.00 0.00 0.00 33 1012.5
20260503230933 16 202 0.0 3.2 0.00 0.00 0.00 33 1012.5
20260503225932 16 202 0.0 3.2 0.00 0.00 0.00 32 1012.5
20260503224931 16 45 1.6 1.6 0.00 0.00 0.00 33 1012.5
20260503223827 16 135 0.0 3.2 0.00 0.00 0.00 32 1012.5
20260503222755 16 315 4.8 6.4 0.00 0.00 0.00 30 1012.9
20260503221755 17 315 0.0 3.2 0.00 0.00 0.00 30 1012.9
20260503220754 17 337 0.0 0.0 0.00 0.00 0.00 30 1012.5
20260503215753 17 22 0.0 4.8 0.00 0.00 0.00 30 1012.5
20260503214752 17 0 9.7 9.7 0.00 0.00 0.00 30 1012.9
20260503213752 17 225 4.8 4.8 0.00 0.00 0.00 29 1012.9
20260503212751 18 225 8.0 8.0 0.00 0.00 0.00 29 1012.9
20260503211750 18 247 3.2 9.7 0.00 0.00 0.00 29 1012.9
20260503210749 18 247 0.0 4.8 0.00 0.00 0.00 31 1012.9
20260503205748 18 202 1.6 4.8 0.00 0.00 0.00 32 1012.9
20260503204716 18 270 1.6 6.4 0.00 0.00 0.00 32 1012.9
20260503203716 17 45 0.0 4.8 0.00 0.00 0.00 33 1012.9